timestamp,wind_dir_avg,wind_spd_avg,wind_spd_max_dir,wind_spd_gust,battery_voltage,lat,long
2023-10-02 00:04:01+00:00,252.0,6.12,249.0,6.97,12.41,47.59359,-54.27349
2023-10-02 00:14:01+00:00,249.0,7.55,245.0,8.08,12.41,47.59359,-54.27349
2023-10-02 00:24:01+00:00,247.0,5.66,251.0,6.31,12.41,47.59359,-54.27349
2023-10-02 00:34:01+00:00,240.0,3.57,242.0,4.38,12.41,47.59359,-54.27349
2023-10-02 00:44:01+00:00,212.0,5.53,218.0,6.75,12.41,47.59359,-54.27349
2023-10-02 00:54:01+00:00,198.0,4.67,198.0,5.5,12.41,47.59359,-54.27349
2023-10-02 01:04:01+00:00,196.0,5.47,202.0,6.88,12.41,47.59359,-54.27349
2023-10-02 01:14:01+00:00,206.0,5.59,205.0,6.26,12.41,47.59359,-54.27349
2023-10-02 01:24:01+00:00,211.0,5.34,217.0,6.14,12.41,47.59359,-54.27349
2023-10-02 01:34:01+00:00,221.0,4.81,222.0,5.55,12.41,47.59359,-54.27349
2023-10-02 01:44:01+00:00,221.0,5.18,220.0,5.78,12.41,47.59359,-54.27349
2023-10-02 01:54:01+00:00,225.0,4.56,224.0,5.15,12.41,47.59359,-54.27349
2023-10-02 02:04:01+00:00,228.0,5.35,219.0,6.04,12.41,47.59359,-54.27349
2023-10-02 02:14:01+00:00,229.0,3.95,226.0,4.63,12.41,47.59359,-54.27349
2023-10-02 02:24:01+00:00,230.0,4.06,229.0,4.5,12.41,47.59359,-54.27349
2023-10-02 02:34:01+00:00,237.0,3.05,246.0,3.75,12.41,47.59359,-54.27349
2023-10-02 02:44:01+00:00,216.0,3.59,217.0,4.04,12.41,47.59359,-54.27349
2023-10-02 02:54:01+00:00,230.0,2.71,233.0,3.2,12.41,47.59359,-54.27349
2023-10-02 03:04:01+00:00,235.0,3.25,232.0,3.73,12.41,47.59359,-54.27349
2023-10-02 03:14:01+00:00,238.0,3.31,236.0,3.7,12.33,47.59359,-54.27349
2023-10-02 03:24:01+00:00,234.0,3.46,232.0,4.19,12.33,47.59359,-54.27349
2023-10-02 03:34:01+00:00,238.0,4.41,240.0,5.03,12.33,47.59359,-54.27349
2023-10-02 03:44:01+00:00,233.0,3.87,240.0,4.26,12.33,47.59359,-54.27349
2023-10-02 03:54:01+00:00,247.0,3.22,243.0,3.73,12.33,47.59359,-54.27349
2023-10-02 04:04:01+00:00,231.0,3.74,236.0,4.25,12.33,47.59359,-54.27349
2023-10-02 04:14:00+00:00,243.0,3.43,235.0,4.26,12.33,47.59359,-54.27349
2023-10-02 04:24:00+00:00,245.0,3.47,243.0,3.95,12.33,47.59359,-54.27349
2023-10-02 04:34:00+00:00,234.0,2.5,229.0,2.87,12.33,47.59359,-54.27349
2023-10-02 04:44:00+00:00,222.0,3.81,221.0,4.2,12.33,47.59359,-54.27349
2023-10-02 04:54:00+00:00,220.0,3.31,224.0,3.65,12.33,47.59359,-54.27349
2023-10-02 05:04:00+00:00,223.0,2.82,213.0,3.5,12.33,47.59359,-54.27349
2023-10-02 05:14:00+00:00,217.0,3.17,217.0,3.66,12.33,47.59359,-54.27349
2023-10-02 05:24:00+00:00,224.0,3.91,225.0,4.29,12.33,47.59359,-54.27349
2023-10-02 05:34:00+00:00,221.0,4.01,224.0,4.36,12.33,47.59359,-54.27349
2023-10-02 05:44:00+00:00,231.0,2.36,230.0,2.75,12.33,47.59359,-54.27349
2023-10-02 05:54:00+00:00,243.0,2.14,243.0,2.63,12.33,47.59359,-54.27349
2023-10-02 06:04:00+00:00,258.0,2.5,258.0,2.75,12.33,47.59359,-54.27349
2023-10-02 06:14:01+00:00,257.0,2.36,253.0,2.53,12.33,47.59359,-54.27349
2023-10-02 06:24:01+00:00,231.0,2.26,233.0,2.44,12.33,47.59359,-54.27349
2023-10-02 06:34:01+00:00,217.0,1.6,218.0,1.83,12.33,47.59359,-54.27349
2023-10-02 06:44:01+00:00,193.0,2.1,190.0,2.4,12.33,47.59359,-54.27349
2023-10-02 06:54:01+00:00,220.0,1.78,226.0,1.94,12.33,47.59359,-54.27349
2023-10-02 07:04:01+00:00,254.0,2.08,256.0,2.27,12.33,47.59359,-54.27349
2023-10-02 07:14:01+00:00,216.0,1.65,221.0,1.99,12.33,47.59359,-54.27349
2023-10-02 07:24:01+00:00,210.0,1.34,214.0,1.47,12.33,47.59359,-54.27349
2023-10-02 07:34:01+00:00,247.0,1.18,249.0,1.49,12.33,47.59359,-54.27349
2023-10-02 07:44:01+00:00,253.0,1.18,254.0,1.28,12.33,47.59359,-54.27349
2023-10-02 07:54:01+00:00,263.0,0.59,270.0,0.71,12.33,47.59359,-54.27349
2023-10-02 08:04:01+00:00,96.0,0.27,99.0,0.32,12.33,47.59359,-54.27349
2023-10-02 08:14:00+00:00,1.0,1.44,357.0,1.57,12.25,47.59359,-54.27349
2023-10-02 08:24:00+00:00,339.0,1.34,342.0,1.51,12.25,47.59359,-54.27349
2023-10-02 08:34:00+00:00,350.0,1.4,348.0,1.56,12.25,47.59359,-54.27349
2023-10-02 08:44:00+00:00,335.0,0.65,339.0,0.81,12.25,47.59359,-54.27349
2023-10-02 08:54:00+00:00,305.0,0.74,304.0,0.81,12.25,47.59359,-54.27349
2023-10-02 09:04:00+00:00,290.0,1.14,289.0,1.25,12.25,47.59359,-54.27349
2023-10-02 09:14:00+00:00,282.0,0.45,283.0,0.55,12.17,47.59359,-54.27349
2023-10-02 09:24:00+00:00,90.0,0.07,90.0,0.17,12.17,47.59359,-54.27349
2023-10-02 09:34:00+00:00,270.0,0.34,267.0,0.41,12.17,47.59359,-54.27349
2023-10-02 09:44:00+00:00,316.0,0.89,317.0,1.0,12.17,47.59359,-54.27349
2023-10-02 09:54:00+00:00,308.0,1.66,310.0,1.8,12.17,47.59359,-54.27349
2023-10-02 10:04:00+00:00,308.0,1.13,309.0,1.28,12.17,47.59359,-54.27349
2023-10-02 10:14:01+00:00,338.0,1.72,340.0,1.81,12.17,47.59359,-54.27349
2023-10-02 10:24:01+00:00,327.0,1.42,325.0,1.55,12.17,47.59359,-54.27349
2023-10-02 10:34:01+00:00,343.0,1.47,342.0,1.63,12.17,47.59359,-54.27349
2023-10-02 10:44:01+00:00,343.0,1.34,345.0,1.45,12.17,47.59359,-54.27349
2023-10-02 10:54:01+00:00,345.0,1.52,341.0,1.64,12.17,47.59359,-54.27349
2023-10-02 11:04:01+00:00,356.0,1.73,356.0,1.83,12.17,47.59359,-54.27349
2023-10-02 11:14:00+00:00,25.0,1.44,33.0,1.72,12.73,47.59359,-54.27349
2023-10-02 11:24:00+00:00,24.0,2.51,18.0,2.77,12.73,47.59359,-54.27349
2023-10-02 11:34:00+00:00,27.0,2.32,24.0,2.5,12.73,47.59359,-54.27349
2023-10-02 11:44:00+00:00,23.0,2.34,29.0,2.63,12.73,47.59359,-54.27349
2023-10-02 11:54:00+00:00,39.0,1.86,42.0,2.25,12.73,47.59359,-54.27349
2023-10-02 12:04:00+00:00,49.0,3.01,49.0,3.28,12.73,47.59359,-54.27349
2023-10-02 12:14:01+00:00,37.0,3.18,37.0,3.45,13.05,47.59359,-54.27349
2023-10-02 12:24:01+00:00,38.0,2.35,38.0,2.61,13.05,47.59359,-54.27349
2023-10-02 12:34:01+00:00,38.0,1.53,43.0,1.88,13.05,47.59359,-54.27349
2023-10-02 12:44:01+00:00,27.0,2.12,30.0,2.33,13.05,47.59359,-54.27349
2023-10-02 12:54:01+00:00,14.0,2.04,17.0,2.21,13.05,47.59359,-54.27349
2023-10-02 13:04:01+00:00,1.0,2.67,0.0,2.81,13.05,47.59359,-54.27349
2023-10-02 13:14:01+00:00,11.0,2.28,8.0,2.64,13.13,47.59359,-54.27349
2023-10-02 13:24:01+00:00,2.0,1.9,2.0,2.09,13.13,47.59359,-54.27349
2023-10-02 13:34:01+00:00,1.0,2.69,2.0,2.79,13.13,47.59359,-54.27349
2023-10-02 13:44:01+00:00,1.0,1.96,359.0,2.24,13.13,47.59359,-54.27349
2023-10-02 13:54:01+00:00,24.0,1.3,21.0,1.55,13.13,47.59359,-54.27349
2023-10-02 14:04:01+00:00,19.0,1.35,24.0,1.45,13.13,47.59359,-54.27349
2023-10-02 14:14:00+00:00,40.0,1.19,40.0,1.33,13.68,47.59359,-54.27349
2023-10-02 14:24:00+00:00,75.0,1.56,98.0,2.6,13.68,47.59359,-54.27349
2023-10-02 14:34:00+00:00,325.0,0.26,314.0,0.66,13.68,47.59359,-54.27349
2023-10-02 14:44:00+00:00,239.0,1.52,237.0,1.94,13.68,47.59359,-54.27349
2023-10-02 14:54:00+00:00,271.0,1.43,271.0,1.7,13.68,47.59359,-54.27349
2023-10-02 15:04:00+00:00,267.0,0.67,272.0,0.78,13.68,47.59359,-54.27349
2023-10-02 15:14:00+00:00,175.0,0.93,162.0,1.3,13.6,47.59359,-54.27349
2023-10-02 15:24:00+00:00,187.0,1.13,180.0,1.43,13.6,47.59359,-54.27349
2023-10-02 15:34:00+00:00,224.0,1.26,224.0,1.51,13.6,47.59359,-54.27349
2023-10-02 15:44:00+00:00,239.0,1.88,237.0,2.14,13.6,47.59359,-54.27349
2023-10-02 15:54:00+00:00,231.0,1.92,235.0,2.14,13.6,47.59359,-54.27349
2023-10-02 16:04:00+00:00,223.0,1.69,230.0,1.85,13.6,47.59359,-54.27349
2023-10-02 16:14:00+00:00,215.0,1.61,213.0,1.77,13.53,47.59359,-54.27349
2023-10-02 16:24:00+00:00,217.0,1.37,222.0,1.46,13.53,47.59359,-54.27349
2023-10-02 16:34:00+00:00,248.0,1.43,252.0,1.56,13.53,47.59359,-54.27349
2023-10-02 16:44:00+00:00,242.0,1.45,236.0,1.65,13.53,47.59359,-54.27349
2023-10-02 16:54:00+00:00,225.0,1.71,226.0,1.89,13.53,47.59359,-54.27349
2023-10-02 17:04:00+00:00,232.0,1.96,234.0,2.16,13.53,47.59359,-54.27349
2023-10-02 17:14:00+00:00,230.0,2.22,231.0,2.45,13.6,47.59359,-54.27349
2023-10-02 17:24:00+00:00,255.0,2.46,259.0,2.65,13.6,47.59359,-54.27349
2023-10-02 17:34:00+00:00,251.0,2.74,251.0,2.91,13.6,47.59359,-54.27349
2023-10-02 17:44:00+00:00,273.0,2.76,272.0,2.97,13.6,47.59359,-54.27349
2023-10-02 17:54:00+00:00,286.0,3.02,288.0,3.45,13.6,47.59359,-54.27349
2023-10-02 18:04:00+00:00,271.0,2.63,270.0,2.8,13.6,47.59359,-54.27349
2023-10-02 18:14:01+00:00,261.0,2.27,256.0,2.53,14.24,47.59359,-54.27349
2023-10-02 18:24:01+00:00,266.0,2.19,263.0,2.5,14.24,47.59359,-54.27349
2023-10-02 18:34:01+00:00,235.0,2.24,232.0,2.58,14.24,47.59359,-54.27349
2023-10-02 18:44:01+00:00,224.0,2.54,224.0,2.77,14.24,47.59359,-54.27349
2023-10-02 18:54:01+00:00,235.0,2.27,236.0,2.43,14.24,47.59359,-54.27349
2023-10-02 19:04:01+00:00,212.0,1.3,217.0,1.53,14.24,47.59359,-54.27349
2023-10-02 19:14:01+00:00,210.0,2.4,213.0,2.57,13.76,47.59359,-54.27349
2023-10-02 19:24:01+00:00,219.0,2.79,218.0,3.21,13.76,47.59359,-54.27349
2023-10-02 19:34:01+00:00,217.0,3.86,216.0,4.35,13.76,47.59359,-54.27349
2023-10-02 19:44:01+00:00,228.0,4.24,227.0,4.67,13.76,47.59359,-54.27349
2023-10-02 19:54:01+00:00,232.0,3.62,232.0,4.05,13.76,47.59359,-54.27349
2023-10-02 20:04:01+00:00,237.0,3.06,241.0,3.27,13.76,47.59359,-54.27349
2023-10-02 20:14:00+00:00,228.0,2.34,231.0,2.85,13.68,47.59359,-54.27349
2023-10-02 20:24:00+00:00,216.0,3.55,215.0,3.78,13.68,47.59359,-54.27349
2023-10-02 20:34:00+00:00,226.0,2.86,224.0,3.19,13.68,47.59359,-54.27349
2023-10-02 20:44:00+00:00,226.0,1.88,231.0,2.25,13.68,47.59359,-54.27349
2023-10-02 20:54:00+00:00,246.0,2.65,249.0,3.03,13.68,47.59359,-54.27349
2023-10-02 21:04:00+00:00,242.0,3.05,242.0,3.31,13.68,47.59359,-54.27349
2023-10-02 21:14:00+00:00,232.0,3.24,234.0,3.6,13.05,47.59359,-54.27349
2023-10-02 21:24:00+00:00,237.0,2.61,238.0,3.25,13.05,47.59359,-54.27349
2023-10-02 21:34:00+00:00,227.0,2.71,231.0,3.35,13.05,47.59359,-54.27349
2023-10-02 21:44:00+00:00,235.0,3.58,234.0,4.21,13.05,47.59359,-54.27349
2023-10-02 21:54:00+00:00,234.0,3.48,237.0,3.89,13.05,47.59359,-54.27349
2023-10-02 22:04:00+00:00,252.0,2.76,249.0,3.03,13.05,47.59359,-54.27349
2023-10-02 22:14:00+00:00,250.0,2.1,250.0,2.38,12.49,47.59359,-54.27349
2023-10-02 22:24:00+00:00,264.0,2.41,263.0,2.84,12.49,47.59359,-54.27349
2023-10-02 22:34:00+00:00,279.0,3.21,284.0,3.5,12.49,47.59359,-54.27349
2023-10-02 22:44:00+00:00,282.0,3.64,283.0,3.86,12.49,47.59359,-54.27349
2023-10-02 22:54:00+00:00,275.0,2.87,276.0,3.17,12.49,47.59359,-54.27349
2023-10-02 23:04:00+00:00,275.0,1.98,278.0,2.36,12.49,47.59359,-54.27349
2023-10-02 23:14:00+00:00,223.0,1.82,230.0,2.23,12.49,47.59359,-54.27349
2023-10-02 23:24:00+00:00,196.0,1.76,193.0,2.01,12.49,47.59359,-54.27349
2023-10-02 23:34:00+00:00,189.0,1.95,190.0,2.19,12.49,47.59359,-54.27349
2023-10-02 23:44:00+00:00,215.0,1.9,214.0,2.21,12.49,47.59359,-54.27349
2023-10-02 23:54:00+00:00,218.0,1.48,215.0,1.8,12.49,47.59359,-54.27349
